JST419 YBCG-YSSY

Flight info

Callsign JST419
Flight time N/A
Altitude 34000
Route APAGI H91 IGDAM/N0468F330 H652 BOREE
Aircraft A320/M-SDE3FGHIRWY/LB1

Departure

Time 2026-05-06 09:45
Airport Gold Coast Airport (YBCG)

Arrival

Time N/A
Airport Sydney Kingsford Smith International Airport (YSSY)
Time Latitude Longitude Altitude Speed Heading
2026-05-06 09:25 -28.16628 153.51116 30 ft 0 kts 60°
2026-05-06 09:34 -28.16634 153.51106 29 ft 4 kts 62°
2026-05-06 09:35 -28.16645 153.51078 28 ft 4 kts 73°
2026-05-06 09:35 -28.16651 153.51054 26 ft 4 kts 57°
2026-05-06 09:35 -28.16667 153.51042 29 ft 4 kts 346°
2026-05-06 09:35 -28.16690 153.51053 28 ft 2 kts 330°
2026-05-06 09:36 -28.16691 153.51054 28 ft 0 kts 330°
2026-05-06 09:38 -28.16661 153.51034 30 ft 12 kts 330°
2026-05-06 09:38 -28.16576 153.50980 28 ft 15 kts 330°
2026-05-06 09:38 -28.16489 153.50903 28 ft 16 kts 285°
2026-05-06 09:39 -28.16467 153.50806 26 ft 16 kts 327°
2026-05-06 09:39 -28.16436 153.50786 29 ft 0 kts 331°
2026-05-06 09:39 -28.16432 153.50783 26 ft 4 kts 331°
2026-05-06 09:39 -28.16329 153.50718 29 ft 24 kts 328°
2026-05-06 09:40 -28.16179 153.50622 29 ft 26 kts 330°
2026-05-06 09:40 -28.16019 153.50521 27 ft 27 kts 330°
2026-05-06 09:40 -28.15671 153.50299 27 ft 29 kts 332°
2026-05-06 09:41 -28.15606 153.50200 26 ft 8 kts 266°
2026-05-06 09:41 -28.15607 153.50193 30 ft 0 kts 257°
2026-05-06 09:44 -28.15613 153.50170 27 ft 13 kts 249°
2026-05-06 09:44 -28.15676 153.50084 30 ft 8 kts 179°
2026-05-06 09:44 -28.15712 153.50109 26 ft 0 kts 149°
2026-05-06 09:44 -28.15776 153.50150 27 ft 42 kts 151°
2026-05-06 09:45 -28.16290 153.50478 29 ft 122 kts 150°
2026-05-06 09:45 -28.17178 153.51046 249 ft 158 kts 150°
2026-05-06 09:45 -28.18127 153.51678 939 ft 157 kts 150°
2026-05-06 09:45 -28.19079 153.52289 1769 ft 158 kts 150°
2026-05-06 09:46 -28.20107 153.52880 2396 ft 177 kts 155°
2026-05-06 09:46 -28.21336 153.53421 2942 ft 201 kts 159°
2026-05-06 09:46 -28.22735 153.53997 3520 ft 227 kts 159°
2026-05-06 09:46 -28.24283 153.54615 4203 ft 252 kts 163°
2026-05-06 09:47 -28.26110 153.54700 4831 ft 279 kts 193°
2026-05-06 09:47 -28.27892 153.53647 5321 ft 304 kts 223°
2026-05-06 09:47 -28.29246 153.51688 5706 ft 328 kts 236°
2026-05-06 09:47 -28.30576 153.49468 6002 ft 352 kts 237°
2026-05-06 09:48 -28.31969 153.47104 6544 ft 365 kts 237°
2026-05-06 09:48 -28.33393 153.44692 7353 ft 371 kts 237°
2026-05-06 09:48 -28.34844 153.42254 8285 ft 375 kts 237°
2026-05-06 09:48 -28.36321 153.39795 9275 ft 379 kts 237°
2026-05-06 09:49 -28.37821 153.37311 10235 ft 384 kts 237°
2026-05-06 09:49 -28.39345 153.34792 11129 ft 389 kts 237°
2026-05-06 09:49 -28.40898 153.32221 11792 ft 403 kts 237°
2026-05-06 09:49 -28.42515 153.29535 12324 ft 416 kts 237°
2026-05-06 09:50 -28.44131 153.26850 13632 ft 409 kts 238°
2026-05-06 09:50 -28.45743 153.24175 14591 ft 412 kts 238°
2026-05-06 09:50 -28.47369 153.21473 15174 ft 420 kts 237°
2026-05-06 09:50 -28.49027 153.18710 15786 ft 422 kts 239°
2026-05-06 09:51 -28.50679 153.15953 16404 ft 422 kts 239°
2026-05-06 09:51 -28.52332 153.13192 16908 ft 424 kts 239°
2026-05-06 09:51 -28.54000 153.10412 17409 ft 426 kts 239°
2026-05-06 09:51 -28.55677 153.07620 17896 ft 429 kts 239°
2026-05-06 09:52 -28.57364 153.04808 18370 ft 432 kts 239°
2026-05-06 09:52 -28.59057 153.01978 18798 ft 434 kts 239°
2026-05-06 09:52 -28.60758 152.99132 19228 ft 436 kts 239°
2026-05-06 09:52 -28.62464 152.96271 19660 ft 438 kts 239°
2026-05-06 09:53 -28.64173 152.93398 20093 ft 439 kts 239°
2026-05-06 09:53 -28.65888 152.90516 20545 ft 440 kts 240°
2026-05-06 09:53 -28.67584 152.87666 20950 ft 441 kts 240°
2026-05-06 09:53 -28.69309 152.84770 21329 ft 443 kts 240°
2026-05-06 09:54 -28.71044 152.81859 21696 ft 445 kts 240°
2026-05-06 09:54 -28.72787 152.78937 22043 ft 446 kts 240°
2026-05-06 09:54 -28.74533 152.76011 22454 ft 446 kts 240°
2026-05-06 09:54 -28.76273 152.73093 22962 ft 444 kts 240°
2026-05-06 09:55 -28.78001 152.70183 23500 ft 442 kts 240°
2026-05-06 09:55 -28.79096 152.68332 23819 ft 441 kts 240°